Location: Ç?ral? Körfezi
(36.3984°N, 30.4829°E)
Time: 11:01:16
(UTC+00:00)

CZ-4C R/B - Pass Details

Date: 04 August 2024
Orbit: 521 x 1470 km, 63.4° (Epoch: 14 September)

Event Time Altitude Azimuth Distance (km) Brightness Sun altitude
Rises 17:59:30 0° 325° (NW) 3,957 7.0 -11.4°
Reaches altitude 10° 18:02:01 10° 323° (NW) 3,114 6.3 -11.9°
Maximum altitude 18:09:43 71° 242° (WSW) 1,421 3.4 -13.2°
Drops below altitude 10° 18:18:38 10° 160° (SSE) 3,574 5.0 -14.7°
Enters shadow 18:18:41 10° 160° (SSE) 3,592 5.0 -14.7°
